STARLINK-1153, 45080

Orbit data source: Space-Track

STARLINK-1153, 45080 is a payload satellite owned by SpaceX/Seattle (US) in LEO that was launched on Wed, 29 Jan 2020 UTC via an FALCON 9 launch vehicle from the Air Force Eastern Test Range (AFETR). Payload-class satellites include a variety of spacecraft equipped with specific instruments for various scientific and technological missions. These include communications satellites like Starlink; space stations such as the ISS; scientific satellites like the Hubble; Earth observation satellites from companies like Planet Labs, Umbra, and HawkEye 360; GPS; miniature CubeSats for education and research; and military/defense satellites.

Loading next visibility...
Identifier
45080, 2020-006AN
Orbit
LEO
Country
Flag of USUS
Related business
Manufacturer
SpaceX/Seattle
Mission
Partially operational Commercial Communications
Bus & Motor
STARLINK, Unknown motor
Mass
260 kg wet, ~248 kg dry
Launch date (UTC)
2020-01-29 (6 years ago)
Launch vehicle
FALCON 9
Launch site
Air Force Eastern Test Range (AFETR)
Object type
Payload
Rocket body
Debris
Shape & HBR
Box + 1 Pan, 10.1 m
Radar Cross Section
13.562 m², Large (>1 m²)

Expand to show TLE details & history
Last TLE update: 4 hours ago

TLE from 4 hours ago
0 STARLINK-1153
1 45080U 20006AN  26126.87334663  .00041079  00000-0  12086-2 0  9992
2 45080  53.1605 346.8091 0003583 174.2217 185.8828 15.34700397345790
Epoch: 2026-05-06T20:57Z
TLE epoch observation values (Epoch: 2026-05-06T20:57:37.148Z)
Latitude
-0.00001°
Longitude
167.67671°
Altitude
465.15 km
Speed
7.634 km/s
True Right ascension
23h 07m 14s
True Declination
0° 00' 00"
Sunlit
Object was in daylight at epoch
Visualization orbit readout
Latitude
Unknown
Longitude
Unknown
Altitude
Unknown
Speed
Unknown
Apparent Right ascension
Unknown
Apparent Declination
Unknown
Sunlit
N/A
Visualization observer readout
Local Sidereal Time
08:55:18
Azimuth
Unknown
Elevation
Unknown
Doppler factor
Unknown
Orbital elements
Apogee altitude
464.518 km
Perigee altitude
459.617 km
Semi-major axis
6,840.204 km
Eccentricity
0.00036
Inclination
53.1605°
RAAN
346.8091°
Arg. of periapsis
174.2217°
True anomaly
185.87859°
Mean anomaly
185.8828°
Eccentric anomaly
185.8807°
Mean motion
3.83654 °/min
Orbital period
93.83 mins
BSTAR
0.0012086
Loading maneuver chart data...
Computing Atmospheric mass density...

Documentation

Showing up to 5 results
|